Location: Erp
(42.9417°N, 1.2009°E)
Time: 06:46:07
(UTC+00:00)

Cosmos 1331 Rocket - Pass Details

Date: 12 January 2026
Orbit: 745 x 773 km, 74.0° (Epoch: 10 February)

Event Time Altitude Azimuth Distance (km) Brightness Sun altitude
Rises 18:46:55 0° 209° (SSW) 3,175 7.7 -22.2°
Reaches altitude 10° 18:49:18 10° 213° (SSW) 2,254 7.0 -22.6°
Maximum altitude 18:54:20 59° 293° (WNW) 864 4.4 -23.6°
Enters shadow 18:57:30 23° 6° (N) 1,577 5.5 -24.1°
